This demonstration page uses our WeatherBlox Daily Observations layout. Learn more.

Left ArrowRight Arrow

39.29038, -76.61219

Hourly Observations for September 18, 2020

Temp ( °F °C ) Dew Point ( °F °C ) Humidity (%) Winds ( mph kmh ) Pressure ( in mb ) Visibility ( mi km ) Precip ( " mm )
12:09 am 00:09 Cloudy 69 20.6 66 18.9 90 90 Calm 29.93 1013 9 14 0.00 0.00
12:37 am 00:37 Cloudy with Light Rain 69 20.6 67 19.4 93 93 Calm 29.93 1013 3 4 0.01 0.25
12:54 am 00:54 Cloudy with Light Rain 68 20 66 18.9 93 93 Calm 29.91 1013 3 5 0.04 1.02
1:31 am 01:31 Cloudy 68 20 66 18.9 93 93 Calm 29.91 1013 9 14 0.00 0.00
1:54 am 01:54 Cloudy with Light Rain 68 20 66 18.9 93 93 ESE 3 6 29.91 1013 7 11 0.01 0.25
2:29 am 02:29 Cloudy with Light Rain 67 19.4 65 18.3 93 93 SE 3 6 29.90 1012 6 10 0.02 0.51
2:54 am 02:54 Cloudy 67 19.4 65 18.3 93 93 Calm 29.89 1012 8 13 0.02 0.51
3:09 am 03:09 Cloudy 67 19.4 65 18.3 93 93 Calm 29.90 1012 10 16 0.00 0.00
3:24 am 03:24 Cloudy 67 19.4 65 18.3 93 93 Calm 29.89 1012 10 16 0.00 0.00
3:43 am 03:43 Cloudy 67 19.4 65 18.3 93 93 Calm 29.89 1012 10 16 0.00 0.00
3:54 am 03:54 Mostly Cloudy 67 19.4 65 18.3 93 93 Calm 29.88 1012 10 16 0.00 0.00
4:03 am 04:03 Mostly Cloudy 67 19.4 65 18.3 93 93 Calm 29.89 1012 10 16 0.00 0.00
4:40 am 04:40 Mostly Cloudy with Mist and Fog 66 18.9 65 18.3 96 96 NNW 3 6 29.89 1012 4 6 0.00 0.00
4:54 am 04:54 Mostly Cloudy with Mist and Fog 67 19.4 65 18.3 93 93 N 3 6 29.88 1012 6 10 0.00 0.00
5:09 am 05:09 Mostly Clear with Mist and Fog 66 18.9 64 17.8 93 93 N 6 9 29.88 1012 6 10 0.00 0.00
5:54 am 05:54 Mostly Clear 65 18.3 62 16.7 90 90 N 7 11 29.89 1012 8 13 0.00 0.00
6:54 am 06:54 Partly Cloudy 64 17.8 60 15.6 87 87 Calm 29.90 1013 7 11 0.00 0.00
7:54 am 07:54 Mostly Cloudy 64 17.8 60 15.6 87 87 N 7 11 29.91 1013 8 13 0.00 0.00
8:54 am 08:54 Mostly Cloudy 65 18.3 59 15 81 81 N 9 15 29.92 1013 7 11 0.00 0.00
9:54 am 09:54 Cloudy 68 20 60 15.6 76 76 NNE 10 17 29.94 1014 10 16 0.00 0.00
10:54 am 10:54 Mostly Cloudy 69 20.6 59 15 70 70 N 13 20 29.96 1014 10 16 0.00 0.00
11:54 am 11:54 Cloudy 69 20.6 59 15 70 70 N 7 11 29.96 1015 10 16 0.00 0.00
12:54 pm 12:54 Cloudy 70 21.1 58 14.4 66 66 N 10 17 29.97 1015 10 16 0.00 0.00
1:13 pm 13:13 Mostly Cloudy 71 21.7 57 13.9 61 61 N 9 15 29.96 1015 10 16 0.00 0.00
1:54 pm 13:54 Mostly Cloudy 74 23.3 57 13.9 56 56 N 12 19 29.97 1015 10 16 0.00 0.00
2:54 pm 14:54 Mostly Cloudy 75 23.9 55 12.8 50 50 NNE 12 19 29.96 1014 10 16 0.00 0.00
3:54 pm 15:54 Mostly Cloudy 76 24.4 55 12.8 48 48 N 8 13 29.95 1014 10 16 0.00 0.00
4:54 pm 16:54 Mostly Cloudy 74 23.3 52 11.1 46 46 N 13 20 29.96 1015 10 16 0.00 0.00
5:54 pm 17:54 Mostly Cloudy 73 22.8 47 8.3 40 40 N 13 20 29.98 1015 10 16 0.00 0.00
6:54 pm 18:54 Mostly Cloudy 70 21.1 46 7.8 42 42 NNW 7 11 30.01 1016 10 16 0.00 0.00
7:54 pm 19:54 Partly Cloudy 66 18.9 49 9.4 54 54 NNW 3 6 30.04 1017 10 16 0.00 0.00
8:54 pm 20:54 Partly Cloudy 66 18.9 45 7.2 47 47 N 9 15 30.09 1019 10 16 0.00 0.00
9:54 pm 21:54 Mostly Clear 64 17.8 42 5.6 45 45 NNE 13 20 30.12 1020 10 16 0.00 0.00
10:54 pm 22:54 Mostly Clear 62 16.7 39 3.9 43 43 NNE 10 17 30.15 1021 10 16 0.00 0.00
11:54 pm 23:54 Clear 59 15 32 0 36 36 N 13 20 30.17 1022 10 16 0.00 0.00

Powered by AerisWeather